Location: Asheville, NC
(35.6000°N, 82.5500°W)
Time: 20:17:54
(UTC-04:00)

Envisat - Pass Details

Date: 11 March 2018
Orbit: 764 x 766 km, 98.2° (Epoch: 24 June)

Event Time Altitude Azimuth Distance (km) Brightness Sun altitude
Rises 22:03:07 0° 201° (SSW) 3,212 6.3 -30.6°
Reaches altitude 10° 22:05:57 10° 218° (SW) 2,290 5.6 -31.1°
Maximum altitude 22:09:41 21° 266° (W) 1,679 5.3 -31.8°
Drops below altitude 10° 22:13:26 10° 314° (NW) 2,301 6.2 -32.5°
Sets 22:16:19 0° 330° (NNW) 3,232 6.9 -33.1°
